SCP
2 2 2 2 1 1 1 1 1 1 1 1 1 1 1 1 1 1 1 2 2 2 2 1 1 1 1 1 1 1 1 1 2 2 1 1 1 1 1 1 1 1 1
2 2 2 2 2 1 1 1 1 1 1 1 1 1 1 1 1 1 1 1 2 2 2 2 1 1 1 2 2 2 1 1 1 1 1 1 1 1 1 1 1 1 1
2 2 3 2 2 2 2 1 2 2 1 1 1 1 1 1 1 1 1 2 2 2 2 2 2 2 2 2 2 2 2 2 1 1 1 1 1 1 1 1 1 1 1
2 2 2 2 2 2 2 2 2 2 2 2 2 2 2 1 1 1 2 2 2 2 1 1 2 2 2 2 2 2 2 2 2 2 2 1 1 2 2 1 1 1 1
1 1 1 2 2 2 2 2 2 2 2 2 2 2 2 2 1 1 1 2 2 1 1 2 2 2 2 2 2 2 2 2 2 2 2 2 2 2 3 2 2 1 1
1 1 1 1 2 2 2 2 2 2 2 2 2 2 2 2 2 2 2 2 2 2 2 2 3 2 1 1 1 2 2 2 2 2 2 3 3 3 4 3 2 2 2
1 1 1 1 2 2 2 2 2 3 2 2 2 3 3 3 3 2 2 2 2 2 3 3 3 2 2 1 1 1 2 2 2 2 2 3 3 4 4 3 3 3 3
1 1 2 2 2 2 2 3 3 3 3 3 3 4 4 4 4 3 3 3 2 2 3 3 3 2 2 1 1 1 1 2 2 2 2 3 4 4 4 3 3 2 2
2 2 2 3 3 3 3 3 4 4 4 4 5 5 5 4 4 4 4 4 3 2 3 3 2 2 1 1 1 1 2 2 2 2 2 3 3 4 3 3 3 3 2
3 3 3 3 3 3 4 4 5 6 6 6 5 5 4 4 4 4 4 4 4 3 3 3 2 2 2 2 2 2 2 3 3 3 2 2 3 3 2 2 3 3 3
3 3 4 4 4 4 5 6 7 8 8 7 5 4 4 4 4 4 4 4 4 4 4 4 3 2 2 2 2 3 3 3 4 3 3 2 2 2 2 2 3 3 3
4 4 5 4 3 4 6 7 9 9 8 6 5 6 6 6 5 5 4 5 5 5 4 4 3 3 3 3 3 4 4 4 4 3 3 3 3 3 3 3 2 3 3
5 6 6 4 4 5 7 9 9 8 6 5 5 6 7 7 6 5 5 5 5 5 4 4 4 4 3 4 4 5 6 6 4 3 3 3 3 3 3 3 3 3 3
5 6 6 5 4 6 7 8 8 6 5 4 4 6 7 7 6 5 5 5 5 4 5 5 5 5 5 6 7 7 8 7 5 3 3 3 4 4 3 3 3 4 4
4 5 5 5 5 6 7 6 6 5 4 3 3 4 6 7 6 5 4 4 5 5 5 7 8 8 8 8 8 8 8 8 6 4 3 3 3 3 3 3 3 3 4
4 5 5 4 5 6 6 5 4 4 4 3 3 4 5 7 7 6 5 5 5 6 7 9 10 10 9 7 6 7 8 8 6 5 4 3 2 2 2 2 2 2 2
4 5 6 5 5 5 5 5 5 5 4 4 5 5 6 7 7 6 6 7 7 8 9 11 12 11 8 4 3 4 6 6 5 4 3 3 2 2 2 2 2 2 2
4 6 7 7 6 6 7 7 7 6 6 6 6 6 7 8 8 7 7 8 8 8 9 10 11 10 6 2 1 2 4 4 3 3 3 3 3 2 2 2 2 2 2
4 6 8 8 8 9 9 9 9 8 8 8 8 8 8 8 8 8 8 8 7 7 7 7 7 6 4 2 1 1 2 2 2 2 2 3 2 2 2 2 3 2 2
5 7 9 10 11 11 11 10 10 9 9 10 10 10 10 9 9 8 8 7 6 5 5 5 4 4 3 2 0 1 2 2 2 2 2 2 2 1 1 2 2 2 2
6 8 10 11 11 10 10 10 10 9 9 11 11 12 11 10 9 8 7 6 6 5 5 4 4 3 3 2 1 0 1 2 2 2 2 2 1 0 0 1 1 1 1
7 8 10 10 10 8 7 8 8 8 8 10 12 13 13 11 10 9 8 6 6 5 4 4 3 3 3 2 1 0 1 1 2 2 2 2 1 0 0 0 0 0 0
7 7 9 10 8 6 5 5 6 6 7 10 13 15 17 17 15 13 11 9 7 6 4 4 4 4 3 2 1 0 0 0 1 1 1 1 0 0 0 0 0 0 0
7 8 9 9 8 6 5 5 5 6 7 11 15 18 21 23 21 18 15 12 9 7 6 5 5 5 4 3 2 1 1 1 1 1 1 1 0 0 0 0 0 0 0
9 10 11 11 8 7 6 6 5 6 9 13 15 16 19 21 19 16 13 9 7 5 6 6 6 6 5 3 2 2 2 1 1 1 1 1 1 1 1 1 1 1 1
9 11 14 13 10 8 7 6 6 7 10 13 14 14 16 17 14 11 8 5 4 3 4 4 4 4 3 2 2 2 1 2 2 2 2 2 1 1 1 1 1 1 1
Wind_Speed
10 10 10 10 10 9 9 9 9 8 7 5 5 5 4 4 4 3 3 4 4 3 3 3 1 3 2 2 3 3 3 3 2 3 2 3 4 3 3 3 3 2 3
10 10 10 11 11 10 10 9 9 9 8 6 5 4 4 4 3 3 2 3 3 3 3 3 3 2 2 2 3 3 3 3 2 3 2 2 3 3 3 3 3 2 2
11 11 11 11 11 11 10 9 9 9 9 7 6 4 4 4 4 3 2 3 3 3 3 3 3 3 3 2 3 3 4 3 2 3 3 3 1 1 3 2 2 2 2
10 10 11 11 10 10 10 10 9 9 8 8 7 7 6 5 4 3 2 2 2 3 3 3 3 3 3 2 4 2 2 3 3 2 3 4 3 3 2 3 2 2 3
10 10 10 10 9 9 8 8 8 8 8 8 8 7 7 5 3 3 2 2 2 2 2 1 2 2 3 2 2 1 3 2 3 3 2 2 3 5 4 3 2 2 2
9 8 9 9 9 8 8 8 8 8 8 8 7 7 6 5 4 3 3 3 2 2 1 1 1 2 2 2 2 2 2 2 3 3 3 3 2 3 3 3 4 3 2
9 9 10 10 9 9 9 8 8 8 8 8 7 7 6 5 5 5 4 3 2 2 1 1 1 1 1 2 2 2 2 2 3 3 3 3 3 3 3 4 4 4 2
8 9 9 10 9 10 10 9 9 8 8 8 7 6 6 5 4 4 3 3 2 1 1 1 2 2 2 2 1 2 2 2 3 3 3 3 2 2 3 3 4 4 3
7 8 9 9 10 9 9 9 9 8 7 7 6 5 5 5 4 4 4 3 2 2 2 2 2 2 2 2 2 2 2 2 3 3 3 3 2 2 3 3 4 4 5
6 7 7 8 9 9 9 9 9 8 8 7 6 6 6 5 4 4 4 3 2 2 2 2 2 2 2 2 2 2 1 2 2 3 3 3 3 2 2 3 3 4 5
5 6 6 7 8 8 8 9 9 8 8 7 6 6 6 6 6 5 4 4 3 3 3 3 3 3 2 2 2 2 2 3 3 3 2 3 3 3 3 3 3 3 4
4 5 6 7 7 8 8 8 8 8 8 7 7 6 6 6 6 5 5 4 4 4 4 4 4 3 3 2 2 3 2 3 3 3 3 3 2 3 4 3 3 3 4
4 5 5 6 7 7 8 8 8 8 8 7 7 6 6 6 5 5 4 4 4 4 4 4 4 3 3 3 2 2 2 3 3 3 3 3 3 4 3 4 4 4 4
4 4 5 5 5 6 7 7 7 7 7 7 7 6 6 5 5 5 4 4 4 4 4 4 4 4 3 3 2 2 2 2 2 3 3 3 4 4 4 4 4 4 4
4 5 5 5 5 6 6 6 6 7 7 7 7 6 6 5 4 4 4 4 4 4 4 4 4 4 3 2 1 2 2 2 2 2 3 2 2 3 4 5 4 4 4
4 5 5 5 6 6 7 7 7 7 7 7 7 6 6 5 5 5 4 4 4 4 4 4 3 3 1 3 1 2 2 2 2 3 3 2 3 3 3 3 4 5 5
4 4 4 5 5 6 6 7 7 7 7 7 7 7 7 6 6 5 5 5 4 4 4 3 3 3 2 3 2 1 3 3 3 3 3 4 1 2 3 3 5 5 5
3 3 4 4 4 5 6 6 7 7 7 7 7 7 7 6 6 5 5 5 4 4 4 4 3 3 3 3 2 2 4 3 3 3 3 3 3 3 4 4 4 4 3
2 2 3 3 3 4 5 6 7 7 8 7 7 7 7 7 6 6 5 4 4 4 4 4 4 4 4 4 3 4 4 3 3 3 3 3 3 2 4 5 4 5 4
1 1 2 2 3 3 4 5 6 7 7 7 7 7 7 6 6 5 5 4 4 4 4 4 4 4 3 4 3 4 4 3 3 3 3 2 2 2 3 5 4 5 5
1 1 1 2 2 3 3 4 4 5 6 6 6 6 6 6 6 5 4 4 4 4 4 4 4 4 4 5 4 4 5 4 4 3 3 1 3 1 3 5 4 4 6
2 1 1 1 2 3 3 4 4 4 4 5 5 6 5 5 5 5 5 5 4 5 5 4 4 4 4 3 4 5 5 5 4 4 2 2 2 2 4 4 3 5 7
1 1 1 1 2 2 3 3 3 3 4 5 5 5 5 4 4 5 4 4 4 4 4 4 4 3 3 3 5 7 6 5 4 2 2 1 3 4 5 5 5 6 5
1 1 1 2 2 2 3 3 3 3 4 4 4 4 5 4 4 3 3 3 3 3 3 3 3 2 3 3 3 4 4 5 5 3 3 5 7 7 4 4 5 4 3
1 1 1 2 2 2 2 2 2 3 4 4 4 4 4 4 3 3 1 2 1 1 2 2 2 2 3 1 1 2 2 2 1 2 3 4 3 4 3 3 3 3 3
1 1 1 2 1 2 1 1 2 3 4 4 4 3 3 3 3 3 2 3 1 3 2 1 2 1 1 2 1 1 0 0 1 3 4 4 4 4 4 4 3 3 3
Wind_Direction
194 193 195 198 197 196 198 201 204 194 199 203 208 204 209 218 219 224 220 233 242 235 248 279 261 262 251 261 262 262 247 252 250 255 246 232 219 218 210 228 245 234 237
191 190 194 197 197 193 195 198 203 201 204 201 211 216 226 231 231 248 236 244 239 239 226 241 259 266 268 255 259 256 269 264 250 266 259 235 203 211 215 218 222 249 239
194 189 193 198 197 194 195 200 201 202 208 204 209 209 210 236 229 232 229 245 246 246 270 253 263 271 268 254 256 252 248 260 259 262 276 271 262 245 206 224 227 238 251
201 196 193 197 198 196 193 198 198 201 203 205 214 215 220 227 231 232 226 227 234 248 249 252 261 272 280 266 254 248 265 259 261 241 261 284 308 278 247 210 206 221 236
201 198 198 197 197 193 191 190 193 198 202 210 213 219 228 230 230 223 213 238 216 236 263 267 259 260 273 283 291 293 278 262 269 269 250 244 239 248 262 267 258 243 235
198 199 195 191 190 188 188 185 184 192 196 204 211 217 226 223 222 223 216 222 207 208 224 245 263 266 274 265 262 267 254 279 289 287 284 269 263 265 266 266 259 259 244
192 192 191 185 184 185 186 183 181 189 193 198 203 205 214 213 215 225 216 230 229 216 210 246 243 264 267 270 273 265 285 263 265 268 275 282 287 292 285 281 286 283 266
182 186 187 186 184 185 186 186 184 187 190 194 196 195 201 211 210 216 230 221 244 249 221 232 231 247 250 258 263 260 257 259 258 265 279 274 282 291 283 278 281 279 266
181 183 183 185 185 186 185 185 183 183 185 183 183 186 195 210 209 204 219 223 222 223 212 231 223 235 242 259 264 275 279 277 271 263 247 264 267 265 275 275 276 281 286
179 177 179 180 181 183 181 181 178 180 180 178 187 183 192 203 210 217 214 223 223 226 225 227 224 229 230 227 248 251 263 272 276 289 301 286 279 282 273 278 280 282 284
181 175 174 175 175 175 175 176 176 179 181 182 188 192 193 199 202 211 215 215 218 214 220 225 228 231 232 231 241 267 267 271 280 283 275 275 293 286 281 283 288 286 282
174 169 169 172 174 175 176 177 180 180 181 182 186 193 197 200 202 202 209 209 210 214 213 222 225 228 225 229 237 253 271 277 280 280 276 271 270 279 287 292 287 285 284
170 165 168 176 179 180 180 180 184 184 181 180 186 190 198 199 202 205 206 206 204 211 220 221 221 220 217 222 231 247 259 272 283 279 273 275 281 282 291 287 286 281 276
184 183 175 180 185 186 185 188 189 185 184 184 187 191 199 199 197 198 201 205 207 211 217 219 218 217 219 221 223 240 268 283 295 292 281 280 282 283 285 277 278 285 287
199 198 192 183 189 190 189 189 187 182 182 186 191 191 193 195 198 197 202 206 212 213 210 217 215 215 215 211 209 237 234 270 289 293 285 282 308 327 304 303 305 292 284
212 208 205 198 195 195 192 188 188 183 181 186 190 187 190 192 195 198 200 203 207 215 213 219 216 218 218 81 63 275 258 257 264 276 285 264 229 228 229 276 305 307 291
232 224 220 211 200 197 194 192 188 184 184 186 187 187 189 190 194 199 194 200 204 207 209 210 208 202 144 129 154 245 261 254 262 272 276 279 304 276 271 236 226 243 251
247 235 226 212 203 193 187 188 184 183 187 187 187 189 191 190 191 196 196 201 203 203 204 204 199 193 164 154 178 223 239 249 254 259 269 282 294 311 314 292 287 283 271
248 241 238 213 193 187 181 184 188 186 191 190 190 191 191 191 192 194 194 197 199 204 211 201 197 199 180 172 194 242 244 238 247 250 254 267 277 339 315 281 280 286 284
260 215 219 202 179 179 183 189 190 192 198 197 193 189 190 191 193 193 196 195 200 207 214 202 207 206 196 170 199 248 250 239 241 234 224 196 271 320 301 278 282 285 296
93 122 179 189 168 168 178 195 196 201 204 199 189 186 189 193 189 186 190 193 200 199 208 206 210 205 192 175 196 241 259 253 247 245 242 142 125 230 279 280 283 301 302
86 124 158 178 161 160 172 191 201 201 196 189 187 186 188 196 181 182 189 193 196 195 197 204 212 201 185 181 189 212 250 285 256 256 256 97 116 260 275 276 297 293 281
113 133 155 174 179 179 191 202 196 194 192 191 187 182 182 188 184 188 190 194 201 214 211 210 214 211 191 174 182 197 221 249 257 269 63 116 208 241 240 233 257 265 262
147 176 200 198 190 185 199 208 190 185 190 190 183 180 183 187 182 197 200 205 215 230 230 229 230 223 205 212 199 199 203 207 218 224 173 196 217 235 254 241 236 251 279
207 206 213 204 198 194 203 203 183 183 190 192 190 190 190 186 185 196 208 230 235 274 261 263 251 246 233 191 349 276 243 253 283 262 243 248 241 240 241 247 258 265 259
268 240 220 202 195 201 199 186 185 190 194 194 202 205 199 185 190 184 170 84 129 114 130 226 263 214 106 138 179 220 343 245 204 246 245 255 264 267 267 266 259 259 269